Regional Weather Roundup
Issued by NWS

Home | Current Version | Previous Version | Graphics & Text | Print | Product List | Glossary On
Versions: 1 2 3 4 5 6 7 8 9 10 11 12 13 14 15 16 17 18 19 20 21 22 23 24 25 26 27 28 29 30 31 32 33 34 35 36 37 38 39 40 41 42 43 44 45 46 47 48 49 50
000
ASUS43 KMPX 041610
RWRMN
WEATHER ROUNDUP FOR MINNESOTA
NATIONAL WEATHER SERVICE TWIN CITIES/CHANHASSEN MN
1000 AM CST WED MAR 04 2015


NOTE: "FAIR" INDICATES FEW OR NO CLOUDS BELOW 12,000 FEET WITH NO
SIGNIFICANT WEATHER AND/OR OBSTRUCTIONS TO VISIBILITY. N/A MEANS
CURRENT SKY AND/OR WEATHER CONDITIONS ARE NOT AVAILABLE.

MNZ060>063-068>070-041700-
   Twin Cities Metro

CITY           SKY/WX    TMP DP  RH WIND       PRES   REMARKS
TWIN CITIES    PTSUNNY    5  -8  55 W14       30.23S WCI -12
ST PAUL        PTSUNNY    7  -6  55 W15G21    30.24S WCI -10
CRYSTAL        SUNNY      4  -8  57 W14       30.21S WCI -14
BLAINE         MOSUNNY    5  -6  61 W12G17    30.20R WCI -11
LAKEVILLE      SUNNY      3  -8  60 W10       30.22R WCI -12
EDEN PRAIRIE   CLOUDY     5  -8  55 W10       30.22S WCI -10
SOUTH ST PAUL  SUNNY      7  -7  52 W8        30.23R WCI  -6
LAKE ELMO      FAIR       7  -6  56 W14       30.22R WCI -10
$$
MNZ001>005-007-008-013>017-022>024-027-028-041700-
   Northwest Minnesota

CITY           SKY/WX    TMP DP  RH WIND       PRES   REMARKS
BEMIDJI        SUNNY     -7 -16  66 W18G24    30.13R HAZE    WCI -30
HALLOCK        PTSUNNY   -6 -15  65 NW20      30.22R WCI -29
ROSEAU         PTSUNNY   -8 -15  71 W10G18    30.15R WCI -26
WARROAD        SUNNY     -8 -17  65 W12       30.13R WCI -27
THIEF RVR FALL SUNNY     -8 -18  59 NW14      30.19R WCI -28
CROOKSTON      SUNNY     -4 -11  71 N17       30.26R WCI -26
FOSSTON        SUNNY     -6 -17  59 NW13G18   30.19R WCI -25
DETROIT LAKES  MOSUNNY   -4  -9  77 NW16G22   30.19R WCI -25
MOORHEAD       SUNNY      0  -9  65 NW14      30.26R WCI -19
PARK RAPIDS    CLOUDY    -3 -13  62 NW13      30.12R WCI -22
MAHNOMEN       PTSUNNY   -7 -14  71 NW14      30.19R WCI -27
$$
MNZ006-009>011-018-025>026-041700-
   North Central Minnesota

CITY           SKY/WX    TMP DP  RH WIND       PRES   REMARKS
BAUDETTE       SUNNY     -9 -17  68 W13       30.10R WCI -29
FLAG ISLAND    SUNNY     -9 -17  70 W14       30.10R WCI -31
INTL FALLS     PTSUNNY   -8 -17  64 NW12G21   30.07R WCI -27
WASKISH        SUNNY     -6 -15  65 W9        30.13R WCI -22
BIG FORK       SUNNY     -4 -18  50 NW8G18    30.08R WCI -19
LONGVILLE      SUNNY     -2 -13  60 NW9       30.12R WCI -18
GRAND RAPIDS   CLOUDY    -4  -9  77 W10       30.06R WCI -21
CRANE LAKE     MOSUNNY   -8 -20  54 NW8G16    30.07R WCI -23
ORR            PTSUNNY   -8 -18  59 NW13G18   30.02R WCI -28
COOK           SUNNY     -6 -17  59 W10       30.04R WCI -23
WALKER         CLOUDY    -5 -15  63 NW8       30.11R WCI -21
$$
MNZ012-019>021-037-041700-
   Northeast Minnesota

CITY           SKY/WX    TMP DP  RH WIND       PRES   REMARKS
DULUTH         MOSUNNY   -2 -13  59 NW14      30.03R WCI -21
ELY            SUNNY     -6 -17  59 NW10      29.99S WCI -23
HIBBING        PTSUNNY   -4 -14  62 NW14      30.05R WCI -24
EVELETH        MOSUNNY   -2 -13  60 W20G26    30.05R WCI -25
DULUTH HARBOR  SUNNY      1  -9  60 W12       30.14S WCI -15
TWO HARBORS    SUNNY      3  -9  55 NW10G18   30.03R WCI -12
SILVER BAY     SUNNY      3 -15  43 W12G18    30.01R WCI -13
GRAND MARAIS     N/A      2 -16  42 W12G23    30.04S WCI -15
G MARAIS ARPRT FLURRIES  -6 -20  49 W14G22    29.87R WCI -26
$$
MNZ029>031-032-039>041-046>048-054>057-064-041700-
   West Central Minnesota

CITY           SKY/WX    TMP DP  RH WIND       PRES   REMARKS
FERGUS FALLS   SUNNY      0 -11  60 NW18G24   30.26R WCI -22
WHEATON        SUNNY      1  -9  60 W21G26    30.28R WCI -20
MORRIS         SUNNY      3  -8  60 NW17      30.22R WCI -17
ALEXANDRIA     SUNNY     -1 -10  65 NW16      30.18R WCI -21
ELBOW LAKE     FAIR       0  -9  65 NW16      30.21R WCI -21
WADENA         SUNNY     -2 -11  65 NW13G18   30.15R WCI -21
GLENWOOD       SUNNY      1  -8  66 W14       30.19R WCI -17
APPLETON       SUNNY      7  -4  61 NW16      30.26R WCI -11
BENSON         SUNNY      5  -6  61 N14       30.23R WCI -12
ORTONVILLE     SUNNY      3  -6  66 NW12G18   30.24S WCI -13
MADISON        SUNNY      7  -2  66 NW12      30.26R WCI  -9
WILLMAR        FAIR       5  -2  72 NW14      30.23R WCI -12
$$
MNZ033>034-036-042>043-049>051-058-059-041700-
   Central Minnesota

CITY           SKY/WX    TMP DP  RH WIND       PRES   REMARKS
ST CLOUD       SUNNY      2  -9  60 NW17G25   30.19R WCI -18
SAUK CENTRE    FAIR       1  -7  66 W12       30.19R WCI -15
PAYNESVILLE    SUNNY      1  -7  70 W16       30.21R WCI -19
AITKIN         SUNNY      1 -11  55 W10G21    30.11R WCI -14
PINE RIVER     SUNNY     -2 -11  65 W13G18    30.15R WCI -21
BRAINERD       MOSUNNY   -1 -12  59 NW14G20   30.14R WCI -20
STAPLES        SUNNY     -2 -13  60 NW15G22   30.15R WCI -22
LITTLE FALLS   SUNNY      3 -11  51 W14       30.18R WCI -15
LITCHFIELD     SUNNY      5  -4  66 W9        30.21R WCI  -9
BUFFALO        SUNNY      4  -7  62 W8        30.23R WCI -10
MAPLE LAKE     SUNNY      6  -5  61 NW12G17   30.22R WCI  -9
$$
MNZ037-044-045-052-053-041700-
   East Central Minnesota

CITY           SKY/WX    TMP DP  RH WIND       PRES   REMARKS
PRINCETON      SUNNY      3  -9  55 W14G20    30.19R WCI -15
MORA           SNOW       5 -11  47 NW15      30.17R VSB 1/2 WCI -13
CAMBRIDGE      SUNNY      3  -9  55 W13G22    30.17S WCI -14
RUSH CITY      SUNNY      4  -9  53 W10G16    30.18S WCI -11
MOOSE LAKE     MOSUNNY    1 -13  51 W13G23    30.10R WCI -16
HINCKLEY       FAIR       3 -11  51 NW12G23   30.15R WCI -13
CLOQUET        MOSUNNY   -2 -13  60 W15G23    30.06S WCI -22
MCGREGOR       PTSUNNY    1  -8  66 NW8G17    30.11R WCI -12
$$
MNZ071>073-080-081-089-090-097-098-041700-
   Southwest Minnesota

CITY           SKY/WX    TMP DP  RH WIND       PRES   REMARKS
MONTEVIDEO     SUNNY      7   0  72 N13G18    30.26R WCI  -9
GRANITE FALLS  SUNNY      7   1  74 NW13      30.27R WCI  -9
CANBY          CLOUDY     8   1  72 NW12G17   30.25R HAZE    WCI  -7
MARSHALL       CLOUDY     7  -2  66 N14       30.25R WCI -10
REDWOOD FALLS  PTSUNNY    6  -4  63 NW10      30.25R WCI  -9
OLIVIA         SUNNY      9   1  72 NW10G17   30.23R WCI  -6
PIPESTONE      SUNNY      3  -2  78 NW9       30.18R WCI -11
WINDOM         CLOUDY     7   0  72 W9        30.22R HAZE    WCI  -7
WORTHINGTON    PTSUNNY   10   1  67 W15       30.21R WCI  -6
JACKSON        PTSUNNY   10  -4  52 NW10      30.21R WCI  -3
TRACY          CLOUDY     7  -3  63 W5        30.23R WCI  -2
SLAYTON        PTSUNNY    7  -5  58 CALM      30.20S
$$
MNZ065>067-074>077-082>085-091>093-041700-
   South Central Minnesota

CITY           SKY/WX    TMP DP  RH WIND       PRES   REMARKS
MANKATO        CLOUDY     7  -6  56 NW12      30.24R WCI  -9
NEW ULM        MOSUNNY    7  -6  56 NW14      30.25R WCI -10
ST JAMES       PTSUNNY    9  -2  61 NW13      30.26R WCI  -7
FAIRMONT       MOSUNNY    9  -2  61 NW13      30.23R WCI  -7
GLENCOE        PTSUNNY    6  -2  69 W9        30.23S WCI  -8
FARIBAULT      SUNNY      7  -6  56 W8        30.23R WCI  -6
OWATONNA       SUNNY      5  -4  66 NW9       30.22R WCI  -9
WASECA         SUNNY      5  -4  66 NW12      30.24R WCI -11
ALBERT LEA     SUNNY      7  -4  61 W9        30.22R WCI  -7
$$
MNZ078>079-086>088-094>096-041700-
   Southeast Minnesota

CITY           SKY/WX    TMP DP  RH WIND       PRES   REMARKS
ROCHESTER      SUNNY      4  -5  66 NW14      30.19R WCI -14
RED WING       MOSUNNY    7  -8  51 NW13      30.22S WCI  -9
STANTON        SUNNY      7  -5  59 W14       30.22R WCI -10
DODGE CENTER   SUNNY      3  -4  72 NW9       30.18S WCI -11
WINONA         SUNNY     10  -6  48 W15G21    30.24R WCI  -6
AUSTIN         SUNNY      5  -6  61 NW14      30.21R WCI -12
PRESTON        SUNNY      3  -7  61 NW14      30.19R WCI -15
$$
ABBREVIATIONS USED IN REMARKS
   TC - TEMPERATURES IN CELSIUS
  WCI - WIND CHILL INDEX
   HX - HEAT INDEX
  VSB - VISIBILITY
$$



USA.gov is the U.S. government's official web portal to all federal, state and local government web resources and services.